Location: Madrid
(40.4000°N, 3.6830°W)
Time: 19:10:58
(UTC+01:00)

ISS - Pass Details

Date: 17 January 2021
Orbit: 418 x 421 km, 51.6° (Epoch: 24 January)

Event Time Altitude Azimuth Distance (km) Brightness Sun altitude
Rises 20:57:24 0° 243° (WSW) 2,361 1.0 -30.5°
Reaches altitude 10° 20:59:31 10° 248° (WSW) 1,500 -0.2 -30.9°
Enters shadow 20:59:51 12° 249° (WSW) 1,368 -0.4 -31.0°
